Theta_e
326 326 326 326 326 327 327 326 325 325 325 326 330 331 331 331 332 331 332 334 333 332 332 332 331 332 333 332 332 332 332 332 331 330 331 330 331 331 331 330 330 330 329 328 328 330 326 324 325 326 326 328 327 326 325 323 322 323 323 323 324 323 323 323 323 324 321 319 320 319 321 324 327 325 323 324 324 325 327 326 327 326 326 326 327
326 325 326 325 325 325 325 324 326 325 326 327 329 330 331 331 331 332 333 333 333 333 332 333 333 333 333 333 332 332 332 331 329 329 329 329 329 329 329 329 330 330 330 328 329 328 325 325 325 326 327 326 327 327 326 326 323 322 322 321 320 323 321 322 322 319 316 317 317 315 318 320 322 321 320 321 324 324 324 325 326 326 327 328 328
323 324 325 324 324 324 324 324 325 327 328 328 330 330 330 331 331 332 331 332 333 333 333 332 332 333 334 332 333 329 330 330 328 327 330 328 327 329 329 328 330 331 329 329 328 326 325 325 325 325 325 326 327 327 325 322 322 322 322 322 320 321 322 322 321 319 317 316 316 315 310 313 317 317 316 317 322 323 325 326 326 327 327 328 328
321 322 322 324 325 325 324 324 326 328 329 329 330 329 330 330 332 332 331 332 332 333 332 331 332 331 330 331 332 332 328 329 325 325 326 327 327 329 330 329 330 331 329 328 327 325 325 324 324 325 326 328 328 327 325 322 321 321 320 322 323 321 319 321 322 321 319 319 314 312 311 311 310 311 311 313 317 323 324 325 326 326 328 328 327
321 322 322 323 323 323 323 325 327 327 328 329 329 329 330 330 332 332 332 332 332 332 331 330 330 328 327 327 328 326 326 324 323 322 325 327 328 329 330 330 331 331 330 328 328 325 324 324 324 325 327 328 329 327 325 323 322 322 322 322 323 323 317 318 322 323 320 321 316 311 310 310 307 312 310 312 314 318 322 325 326 326 326 326 326
322 321 321 322 323 324 323 325 326 327 327 329 329 330 330 331 332 332 332 332 332 331 330 330 330 327 326 326 324 322 321 321 321 322 323 326 327 327 330 330 330 331 330 329 327 326 324 324 324 324 326 328 328 327 326 324 321 321 322 323 321 322 322 319 320 321 321 320 318 317 316 311 311 312 309 308 315 314 318 322 323 324 326 326 326
321 322 322 322 323 323 324 324 326 326 327 329 329 329 330 331 331 332 332 332 332 330 329 330 327 327 326 326 325 323 321 317 318 319 323 320 324 327 328 328 330 330 329 328 326 326 324 325 324 324 326 327 328 326 325 324 323 322 322 322 322 321 321 320 320 319 320 321 320 320 321 316 317 312 307 309 310 313 314 316 319 323 325 326 324
320 320 321 322 323 323 323 324 326 326 327 328 328 329 329 329 330 331 331 331 332 330 329 329 326 325 325 324 323 322 322 321 320 320 320 323 323 324 326 326 328 328 327 326 325 326 325 324 323 324 325 327 327 325 325 324 323 324 323 321 320 322 322 322 320 320 321 320 319 318 317 316 314 312 313 314 312 310 311 317 319 321 322 322 321
319 319 320 321 322 322 323 324 326 327 326 327 327 328 328 329 329 329 329 329 329 329 328 327 326 324 324 323 322 323 323 321 321 322 321 321 321 321 324 324 324 324 324 324 325 325 327 324 324 324 325 327 328 325 324 324 324 323 322 320 320 320 321 321 321 321 320 319 317 315 315 313 312 312 311 311 311 311 310 312 314 319 320 318 315
318 319 321 321 322 323 324 326 326 326 326 327 327 328 327 327 327 327 327 327 328 328 326 325 324 323 323 322 322 321 321 319 320 319 319 319 319 318 318 320 320 320 322 324 325 325 325 325 324 324 326 328 328 325 324 323 323 323 322 321 320 319 319 321 321 321 321 319 319 316 313 312 312 312 311 311 311 311 311 311 314 315 314 314 313
318 319 320 321 323 324 325 324 324 324 325 326 326 326 326 326 325 325 324 324 326 326 325 322 322 322 322 323 322 320 320 320 319 317 317 317 318 316 317 316 316 318 320 322 324 324 323 325 324 324 325 328 327 325 325 324 323 323 322 321 320 320 319 320 320 320 320 319 318 318 315 314 313 311 310 312 310 309 311 311 313 315 314 313 311
318 319 319 320 322 323 324 323 323 323 324 324 324 325 325 324 323 322 321 322 323 323 322 321 321 322 323 323 321 321 320 320 320 318 318 319 317 316 315 316 315 315 315 317 318 321 324 323 323 323 325 326 325 325 325 324 323 322 321 321 320 319 319 320 319 319 319 320 318 318 317 315 313 313 312 313 313 313 314 311 312 312 311 306 307
319 319 319 320 320 321 322 322 322 321 322 323 323 324 323 322 322 321 318 319 320 320 320 320 321 321 322 322 321 321 321 320 320 319 318 318 316 316 316 316 314 316 314 316 315 317 319 318 319 320 322 323 323 322 323 323 322 322 321 320 319 319 320 319 319 319 320 320 320 317 315 314 313 313 313 312 312 313 313 311 308 309 308 306 307
319 319 319 320 321 321 322 322 322 321 322 322 323 322 322 321 320 319 317 318 319 319 319 319 320 321 321 322 321 321 320 320 319 319 317 317 317 317 317 317 316 317 315 316 315 316 316 318 318 317 318 320 321 320 321 322 322 322 321 320 319 319 319 319 319 319 319 319 319 317 316 315 314 313 312 312 311 312 312 312 309 304 306 305 300
319 318 319 319 320 321 321 322 322 321 321 321 322 322 321 320 319 318 317 318 318 317 318 319 319 320 320 321 321 320 319 318 317 318 316 316 315 316 316 316 316 315 316 316 317 315 314 315 316 316 317 318 320 320 321 321 321 322 321 320 319 318 319 318 318 318 318 317 318 318 316 315 314 312 312 312 313 314 314 312 310 307 303 303 301
317 317 318 320 321 321 321 322 322 320 320 321 321 321 320 319 318 318 318 318 318 318 317 318 318 318 319 319 319 318 318 316 316 316 315 316 316 316 315 315 315 314 314 316 315 315 315 316 316 315 316 317 318 318 319 320 321 321 320 320 319 319 318 318 317 318 318 317 318 316 317 316 315 312 312 312 312 314 314 313 313 311 307 302 299
316 317 317 318 320 321 321 321 321 320 320 321 320 320 320 319 317 317 317 317 317 317 316 316 317 317 317 317 317 317 316 315 315 314 314 314 315 315 315 314 314 316 316 315 314 312 313 315 315 314 315 315 316 317 318 319 319 320 318 317 316 317 318 318 315 318 318 317 316 317 319 316 315 313 311 312 312 312 313 314 314 312 310 304 299
317 318 319 321 321 322 322 322 321 321 321 320 320 320 320 319 318 318 318 317 316 316 316 317 317 316 316 317 317 317 316 315 315 314 313 314 313 314 314 314 315 316 316 315 314 314 316 319 314 313 312 313 314 315 316 315 316 315 314 314 313 314 314 312 314 316 314 315 315 315 316 316 315 314 311 311 311 311 310 312 312 311 309 306 302
316 317 319 320 321 322 321 321 322 322 322 321 321 321 321 320 320 320 318 318 318 317 317 317 317 317 317 316 315 314 314 314 314 314 314 314 314 314 314 314 313 314 316 314 313 312 312 312 312 311 311 311 311 312 312 312 312 311 311 310 310 310 310 309 310 311 310 313 312 313 312 315 314 315 311 311 311 310 310 309 308 308 307 308 305
316 319 320 321 322 322 321 321 322 322 322 321 321 321 320 321 320 319 319 318 317 316 317 316 316 316 316 315 314 315 314 314 314 314 314 314 314 314 313 313 314 314 313 313 312 311 312 312 311 310 310 309 310 310 310 310 310 310 310 310 309 309 309 309 309 309 310 309 310 311 310 311 312 314 311 310 309 309 309 307 307 306 304 305 306
316 318 319 319 321 321 321 322 322 321 321 321 321 320 320 321 321 319 318 317 316 316 316 316 316 315 315 315 314 314 314 314 314 314 314 313 313 314 313 314 313 312 312 312 311 310 310 311 310 311 310 309 309 308 309 309 309 308 308 309 308 309 308 308 310 309 309 308 309 308 308 308 311 314 311 309 309 308 308 308 307 305 303 304 304
316 317 319 318 318 318 319 321 321 319 318 317 318 320 321 322 322 320 318 317 317 317 316 316 316 316 315 314 314 314 314 313 313 313 312 312 312 312 312 312 312 310 311 310 309 309 308 309 309 308 308 307 307 307 307 309 309 309 309 309 308 308 308 307 308 309 308 308 308 308 307 308 310 313 311 308 308 308 307 306 306 305 303 303 305
315 315 315 316 317 318 320 321 319 317 316 316 318 320 321 321 320 319 319 318 319 318 318 317 316 315 315 315 315 315 314 312 312 312 311 312 311 311 312 311 310 309 309 309 308 307 307 308 307 307 306 306 306 306 307 308 308 309 309 308 308 308 308 308 309 308 307 307 307 307 306 307 309 311 310 309 309 308 308 307 307 305 304 303 303
305 308 308 309 313 317 318 318 317 315 315 316 316 318 319 318 319 319 318 318 318 318 317 316 315 315 315 315 315 314 313 313 312 312 311 311 311 311 311 310 309 309 309 308 307 307 306 307 307 306 305 305 305 306 306 306 307 308 309 308 307 307 307 307 308 307 306 307 307 307 307 307 309 310 309 308 308 309 309 308 307 306 305 303 304
299 301 302 303 305 307 313 317 316 315 314 314 314 315 313 317 318 319 318 318 318 318 317 317 316 315 314 314 314 314 313 313 312 312 311 311 311 311 311 309 309 308 307 307 307 306 306 306 307 306 305 305 305 306 306 306 306 306 307 308 307 307 307 306 306 306 310 307 308 308 307 307 307 308 307 308 308 308 308 308 308 306 305 304 305
297 299 299 300 300 302 304 309 314 314 316 315 315 314 314 316 317 318 318 317 317 317 317 316 316 315 313 314 313 313 314 313 313 312 312 312 311 311 310 310 309 308 306 306 306 307 307 305 305 305 305 305 305 305 305 305 306 306 306 306 307 308 307 307 306 306 307 306 308 307 307 307 307 308 308 307 307 308 307 308 307 306 305 305 306
296 297 298 300 299 299 301 303 308 313 315 316 316 314 314 316 317 317 317 318 318 317 316 316 316 316 315 313 312 314 314 313 313 312 312 312 311 310 310 309 309 308 307 306 305 305 307 305 304 304 305 305 305 305 305 305 305 306 306 307 307 306 306 307 307 307 307 306 307 307 308 308 308 308 308 308 307 307 308 307 307 307 306 306 306
297 297 296 296 297 298 300 300 303 308 313 315 315 315 315 316 317 317 317 316 317 316 316 317 316 316 316 314 314 314 314 314 314 314 313 312 311 310 309 309 308 307 307 307 306 306 306 305 304 305 305 306 305 305 304 305 305 306 306 306 306 307 306 306 306 306 307 307 306 307 308 308 308 308 309 308 309 308 308 307 307 308 307 307 306
295 296 297 296 296 297 298 299 300 302 305 311 313 313 313 314 315 316 317 315 315 315 316 316 316 316 315 315 314 314 314 314 314 314 313 312 312 311 311 310 309 309 309 308 307 306 306 306 305 304 304 305 306 305 305 305 306 306 305 306 306 307 307 307 306 306 306 306 306 306 307 307 311 311 308 308 308 309 309 308 307 308 307 307 306
295 295 296 297 296 296 297 298 298 299 300 301 303 306 308 309 311 313 314 315 315 314 314 314 313 313 313 314 314 313 314 313 313 313 313 313 312 312 312 311 310 309 308 308 307 307 307 307 306 305 304 305 305 305 309 305 305 307 305 306 306 306 306 307 308 307 306 307 307 307 310 314 313 312 308 303 302 303 307 310 310 308 308 307 307
295 295 296 297 297 296 297 297 297 297 298 299 300 301 301 302 303 304 305 308 311 310 310 311 312 313 314 314 314 313 313 313 313 313 313 312 312 311 311 310 310 309 307 308 307 307 306 306 307 306 305 305 306 307 303 299 299 302 305 306 307 306 306 307 307 307 308 308 307 308 308 311 314 313 311 302 300 300 300 303 303 305 307 309 307
294 295 296 296 296 296 296 296 296 297 297 297 298 299 300 299 300 301 302 303 302 302 302 302 303 304 307 309 310 311 312 312 312 312 312 311 311 311 310 310 310 310 310 308 307 306 305 305 305 304 303 304 305 303 298 298 297 297 301 306 305 306 307 307 307 307 307 307 308 308 308 309 311 311 311 309 304 300 299 300 299 299 300 301 302
294 294 295 295 295 296 297 297 297 297 297 298 299 298 298 299 299 300 301 300 299 300 300 299 300 300 300 301 301 300 301 302 303 305 305 304 303 303 304 305 306 307 308 309 309 309 309 307 305 305 305 305 306 299 297 297 298 297 297 300 305 306 306 307 307 307 308 308 308 308 309 309 310 313 314 308 308 307 299 298 298 299 298 298 297
294 294 294 295 296 296 297 298 298 298 297 297 298 298 299 299 300 299 298 298 299 298 298 298 299 299 299 299 299 299 298 298 299 299 298 298 299 299 300 300 302 303 303 303 304 305 307 308 308 307 307 307 307 298 294 294 294 294 294 297 304 306 307 307 308 308 308 308 308 309 309 310 309 311 312 308 307 307 305 303 304 305 307 302 296
294 294 295 295 296 296 297 297 297 298 298 298 297 297 298 298 299 298 298 297 297 297 297 297 297 298 298 298 298 298 297 297 298 298 297 297 296 297 297 298 298 299 299 300 300 300 302 304 305 306 306 307 304 294 294 294 294 294 294 297 302 303 304 306 307 308 309 309 310 310 310 310 310 310 311 308 308 307 306 306 305 304 303 302 302
293 294 294 295 296 296 296 297 298 298 298 298 298 298 297 297 298 297 297 297 297 296 296 297 297 297 298 298 298 297 296 297 297 297 296 296 295 295 295 296 297 296 297 297 298 298 299 300 302 303 304 303 301 293 293 294 294 294 297 304 303 303 304 304 305 307 308 309 310 310 310 311 311 311 306 299 302 309 307 307 307 305 302 300 299
294 295 294 296 296 296 297 297 297 297 297 297 298 298 298 297 297 297 297 297 296 296 296 296 297 297 297 297 297 297 296 296 296 296 296 295 295 295 295 296 295 295 295 295 296 296 297 298 299 300 300 300 300 295 293 293 294 294 299 305 305 305 305 305 305 307 308 309 310 310 311 311 311 311 305 300 297 301 308 308 307 306 305 302 300
295 295 295 295 295 296 297 296 296 296 297 297 297 297 296 296 296 296 296 296 296 295 296 296 296 296 297 297 297 297 296 296 295 295 295 295 296 296 295 295 294 294 294 295 295 295 295 296 296 297 299 298 298 296 293 293 293 293 298 303 304 304 305 305 306 307 307 308 309 308 311 312 311 312 302 300 296 301 308 308 308 306 303 302 301
296 295 294 295 295 296 296 296 295 294 295 296 297 296 295 294 295 295 295 295 295 296 296 296 296 296 296 297 297 296 296 295 294 294 295 295 295 295 295 295 294 294 294 294 295 293 293 294 295 296 298 296 297 297 293 292 292 293 297 301 303 303 303 304 305 306 307 308 308 307 306 306 309 308 300 299 296 301 308 308 307 306 304 303 303
294 295 295 295 295 295 294 294 294 294 295 295 295 295 295 294 293 294 293 293 293 294 295 296 296 297 297 296 296 296 295 295 295 295 295 295 296 295 295 295 295 294 294 294 293 293 292 293 293 293 294 295 295 296 295 292 292 292 293 299 300 301 301 302 303 305 306 307 307 307 305 299 296 295 295 296 295 296 308 309 308 307 305 304 307
293 294 295 294 294 294 293 293 294 294 295 295 294 293 293 293 293 293 292 293 293 294 294 294 294 294 294 295 295 295 294 294 294 294 294 294 295 294 294 295 294 294 294 293 292 292 292 292 292 292 293 293 295 295 294 292 292 292 292 294 298 299 300 301 302 303 304 304 306 306 307 301 297 295 295 295 295 294 298 309 309 309 310 310 302
294 295 294 293 293 293 293 294 294 295 295 295 294 293 292 292 292 292 293 294 294 294 294 294 294 293 293 293 293 294 294 294 294 293 293 292 293 293 293 293 293 293 293 292 292 292 292 292 292 292 292 292 294 295 294 293 291 292 291 292 296 298 297 299 300 302 303 304 305 305 306 302 297 296 294 293 294 294 294 305 307 300 300 297 302
292 293 294 293 292 292 292 292 293 294 294 294 294 293 292 292 292 292 294 294 294 294 294 293 293 293 293 293 293 292 292 293 292 292 291 291 291 292 291 292 291 291 291 291 291 290 290 291 291 291 291 292 292 293 293 293 292 291 291 291 291 294 290 297 299 299 301 302 304 305 305 300 296 295 295 295 294 293 293 299 297 296 296 294 295
291 292 292 293 292 292 292 292 293 293 293 294 293 292 292 292 291 293 293 293 292 292 292 292 292 292 292 292 292 291 290 290 291 291 291 290 290 290 290 290 290 290 290 290 290 290 290 290 290 290 291 291 292 292 292 291 292 291 291 290 290 290 290 294 295 297 299 300 301 303 301 295 294 294 294 294 293 293 296 294 294 295 295 294 299
291 291 292 292 291 291 291 292 292 293 293 293 293 292 292 291 291 291 292 292 292 292 291 291 291 290 290 289 290 289 290 289 289 290 290 290 289 289 289 289 289 289 289 289 289 289 289 289 288 289 290 290 291 291 291 291 291 291 291 290 290 290 290 289 293 296 298 299 296 294 292 292 292 292 292 293 293 293 291 292 292 294 296 299 299
290 291 292 292 292 292 291 291 291 291 292 293 293 293 291 291 292 291 289 290 290 290 290 290 290 290 290 290 290 289 289 288 288 288 289 289 289 289 289 289 288 288 288 288 288 288 288 288 288 288 289 289 290 290 290 291 292 292 291 291 290 290 291 291 292 293 292 291 290 291 291 291 292 294 298 300 300 300 293 291 292 293 299 300 300
288 288 290 290 290 290 290 291 291 291 291 291 291 291 291 291 290 289 289 288 289 289 289 288 287 287 287 287 288 288 288 288 287 287 288 288 288 287 288 289 288 287 287 287 287 287 288 288 288 288 288 288 288 288 289 289 290 290 291 292 292 291 291 291 293 294 293 295 296 296 296 293 293 292 292 292 293 294 296 296 296 297 299 301 300
286 287 288 288 289 289 289 290 290 289 290 290 290 289 288 287 288 287 287 288 288 287 287 286 287 287 287 287 287 287 287 287 287 287 287 288 288 288 288 288 288 288 287 287 287 287 287 287 287 287 287 287 287 287 288 288 289 290 291 291 290 290 290 290 291 293 293 294 295 293 293 295 295 296 296 295 294 294 294 294 295 297 298 298 297
287 286 286 287 288 288 287 287 287 288 289 289 289 289 289 288 288 287 286 287 287 287 285 285 285 285 286 287 287 287 287 287 286 286 286 287 287 288 288 288 288 288 288 288 288 288 288 288 288 287 287 286 286 287 288 289 289 289 288 289 289 290 290 290 291 290 291 291 294 295 294 294 294 291 291 293 293 292 291 292 295 295 295 297 297
287 287 287 288 288 287 287 287 286 286 287 288 288 289 289 289 289 288 287 288 287 286 285 286 285 285 286 286 287 287 287 287 287 286 286 286 285 289 288 287 288 289 289 289 288 288 289 289 288 288 288 287 287 289 289 288 288 288 288 288 288 288 288 289 289 288 289 288 290 291 291 292 291 291 291 290 289 289 289 290 290 291 293 295 294
286 287 286 286 286 287 287 286 286 287 287 287 286 286 287 287 287 286 286 286 286 286 286 285 285 285 285 286 286 286 286 286 286 286 285 286 286 286 287 288 289 289 289 289 288 288 288 288 289 288 288 288 288 288 288 288 288 288 288 288 288 288 288 288 288 287 288 289 290 291 291 291 290 291 290 290 290 289 289 289 289 289 291 291 291
Wind_Speed
9 10 11 10 9 9 7 5 5 5 5 6 8 8 7 7 6 7 7 8 8 8 7 7 8 7 6 7 5 5 5 5 4 3 4 4 5 5 5 4 5 5 5 4 5 4 4 4 5 4 5 6 6 6 6 5 4 5 5 3 7 7 5 5 5 6 8 6 6 7 7 6 5 6 6 5 5 4 4 5 4 5 6 7 6
8 8 10 8 8 8 7 6 6 8 6 7 8 8 7 7 7 7 7 8 8 9 8 7 7 7 6 5 5 5 5 5 4 3 4 4 5 5 5 5 6 6 5 5 4 5 5 5 5 5 5 5 5 5 6 6 6 5 5 5 2 5 4 4 3 3 4 5 7 5 6 5 5 6 7 6 5 5 4 6 6 5 7 7 7
10 12 12 10 10 8 7 6 5 6 6 8 7 8 9 7 7 7 7 7 7 7 8 7 5 6 7 5 7 4 3 3 4 4 4 5 4 4 4 5 6 6 6 6 5 5 5 6 5 5 5 5 6 6 6 6 6 7 6 6 5 3 3 2 2 2 5 4 4 6 3 4 4 5 5 7 5 5 6 7 6 7 7 7 6
14 14 13 12 11 9 7 6 6 5 7 8 9 10 8 8 8 9 8 7 6 6 6 6 7 6 5 7 6 5 4 4 4 4 4 5 4 3 3 3 4 5 5 5 4 4 5 5 5 5 6 5 6 6 6 5 6 5 5 4 7 6 2 1 2 1 4 7 4 3 3 4 5 4 5 5 4 7 7 7 7 7 7 7 5
13 13 11 11 11 12 9 6 6 6 6 6 8 9 7 9 8 10 8 7 7 7 7 7 8 7 6 7 6 6 5 4 4 3 3 4 4 4 4 4 4 4 4 4 4 5 4 4 4 5 6 6 5 5 6 6 6 6 6 6 6 8 5 2 0 1 3 1 7 5 4 1 2 4 4 5 5 5 7 7 7 7 7 6 5
16 16 15 13 11 8 6 7 7 6 6 5 6 8 7 7 8 9 7 7 8 8 8 8 8 8 8 7 7 5 4 5 5 5 4 4 5 3 3 4 4 5 4 4 3 4 5 5 4 5 4 5 5 5 5 5 5 6 6 7 5 3 7 5 2 2 2 3 2 1 3 4 6 5 3 3 4 5 5 7 6 5 5 6 5
10 10 9 9 10 8 8 7 7 7 6 6 6 8 8 7 7 8 7 7 8 7 7 7 7 7 8 8 7 7 6 2 1 2 5 4 4 4 3 3 3 4 3 4 4 3 4 5 5 5 5 4 5 5 5 6 5 5 5 5 6 5 6 6 7 4 2 2 2 1 3 1 7 7 3 5 5 3 5 4 5 5 5 6 5
13 13 13 11 9 10 10 7 7 7 7 8 7 7 8 8 8 7 6 6 6 7 7 7 8 6 7 6 6 6 6 6 5 4 4 5 5 4 4 3 3 3 4 4 4 4 5 5 4 5 5 5 5 5 6 4 4 3 3 4 4 5 6 7 6 6 7 3 2 2 4 5 5 5 6 6 6 6 3 4 5 4 5 6 5
13 12 13 12 11 11 8 8 7 7 7 8 7 7 7 7 7 7 7 6 6 7 7 6 7 7 6 6 6 3 5 5 5 4 6 6 6 4 5 4 3 3 3 4 3 4 5 5 5 5 5 5 4 4 5 6 6 6 5 5 5 4 3 3 6 6 4 4 4 4 5 5 5 5 6 5 5 6 2 2 3 4 5 5 4
8 9 8 8 8 8 6 5 7 6 6 7 6 7 7 6 7 7 7 6 6 7 6 7 6 6 7 6 7 5 5 5 5 5 5 5 6 4 4 4 4 3 3 3 3 3 4 5 5 6 6 6 5 5 5 5 5 6 6 6 5 5 3 4 5 5 4 4 3 6 4 4 4 4 5 6 6 4 7 7 6 7 6 2 3
7 8 8 8 5 6 7 7 6 6 6 7 6 7 7 7 7 7 6 6 6 7 7 7 6 6 6 7 8 8 6 7 6 5 4 4 6 5 5 4 3 4 3 3 3 3 3 4 4 4 5 6 5 5 6 6 6 6 5 5 5 6 4 4 4 4 3 3 4 6 7 8 7 6 7 5 5 5 6 5 3 3 4 5 1
6 8 9 8 8 7 6 7 7 7 7 7 7 7 7 6 7 8 6 6 5 6 7 7 6 5 6 7 8 8 8 6 7 6 5 5 5 5 4 4 3 3 3 4 4 4 5 5 5 5 6 5 6 5 5 5 5 5 5 5 4 4 4 5 5 5 6 4 4 5 5 4 2 5 6 6 8 7 8 8 6 4 4 2 1
8 9 8 9 10 10 9 7 7 7 6 7 8 7 7 7 8 8 6 5 6 6 7 7 6 6 7 7 8 8 8 8 7 7 5 6 5 5 5 5 4 4 3 5 4 6 5 6 6 6 6 6 6 6 5 5 6 5 5 5 5 6 5 5 5 6 7 7 6 3 3 3 3 4 5 6 5 7 9 8 3 3 3 2 2
6 7 7 7 8 7 7 7 7 6 6 7 7 7 7 7 7 8 6 5 6 7 7 7 6 7 7 7 8 8 7 7 7 7 6 5 5 6 6 6 6 5 5 4 4 4 4 4 5 5 4 5 6 6 6 5 6 6 6 6 6 5 4 5 5 5 5 4 4 5 4 4 4 5 6 7 8 8 7 9 7 3 3 2 1
5 5 5 5 3 4 5 6 6 6 7 7 7 7 8 8 7 8 8 6 7 7 6 7 6 7 6 6 7 6 7 6 6 6 7 6 5 6 5 5 6 5 6 4 3 3 4 4 4 4 4 5 5 5 5 5 5 5 5 5 5 5 5 5 5 6 6 6 5 5 4 4 5 5 7 7 8 9 9 9 9 8 4 3 1
2 3 2 1 1 3 4 6 6 7 7 6 8 8 8 8 8 8 9 8 8 7 5 6 6 6 5 6 6 7 6 6 5 5 5 7 7 6 6 5 5 5 3 4 3 3 4 4 4 4 4 5 5 5 6 6 6 6 5 5 5 4 6 7 6 6 6 6 6 4 5 4 4 6 5 7 7 7 8 8 8 9 10 4 1
10 7 8 7 6 4 5 6 6 7 6 7 7 8 9 8 7 6 6 6 7 7 7 6 6 6 6 7 7 8 9 9 9 8 7 5 5 5 6 5 5 5 5 3 4 2 3 5 5 4 4 4 4 4 5 6 6 5 5 6 5 5 5 6 5 6 5 5 5 7 6 5 5 5 4 5 5 5 7 8 8 10 9 9 6
14 12 6 2 3 3 5 6 6 5 6 7 7 6 7 7 8 8 7 8 6 7 9 9 9 7 8 9 9 10 9 8 8 8 6 6 4 4 4 6 6 5 5 4 3 4 3 4 5 4 4 4 4 4 4 5 5 4 4 4 4 5 4 3 4 5 5 5 5 5 4 5 4 5 5 5 6 7 7 7 6 4 8 10 6
6 9 7 5 3 3 6 7 6 6 6 6 7 8 9 9 9 9 10 11 12 10 9 9 9 8 7 8 8 6 6 7 6 7 7 7 7 6 6 6 5 5 6 5 4 4 4 4 4 5 4 4 3 4 4 4 4 5 4 4 4 5 5 5 3 4 4 5 6 6 4 4 5 5 5 5 5 6 6 5 5 6 4 5 9
4 7 7 6 5 6 7 7 7 7 7 7 7 8 11 8 9 9 9 9 8 9 9 9 6 6 6 5 4 5 7 8 9 9 8 8 7 6 6 5 5 4 4 5 5 4 4 4 3 5 5 4 5 3 4 5 5 4 4 5 4 5 5 5 5 4 4 4 6 6 5 5 5 5 5 6 6 5 6 6 6 6 4 5 5
3 6 9 8 5 6 7 7 8 8 7 7 10 15 13 9 8 9 10 8 6 4 6 7 7 7 8 8 7 6 6 6 7 7 7 6 5 4 5 5 5 4 5 5 5 5 4 4 4 3 4 5 5 4 3 5 5 5 4 5 4 5 6 4 5 5 5 5 5 5 5 5 6 6 5 5 6 6 5 4 4 5 5 5 6
2 3 5 8 6 5 5 7 8 8 10 12 13 14 13 14 13 9 6 6 8 7 7 8 7 8 8 8 6 4 4 4 6 6 6 5 5 5 5 5 6 4 5 6 6 4 4 5 5 4 4 4 4 5 5 5 6 6 5 4 5 5 5 5 5 5 5 4 5 5 5 5 6 6 6 6 6 7 7 6 5 6 6 5 4
4 6 9 6 6 6 4 7 9 11 12 12 10 12 13 12 8 8 10 8 8 8 6 7 8 8 8 8 8 6 5 4 6 6 6 6 5 5 4 6 6 5 3 5 6 5 6 5 5 4 4 4 4 4 3 5 5 6 6 5 4 5 5 5 5 6 6 5 5 5 5 5 5 6 6 5 6 7 6 7 7 5 6 5 5
11 10 10 7 6 5 4 6 10 11 12 11 8 7 6 6 8 9 10 9 8 7 7 7 6 7 6 6 6 7 7 6 6 6 7 5 6 5 5 6 6 5 5 3 4 6 6 5 5 4 4 4 4 3 4 4 6 6 6 6 5 5 4 3 4 5 6 6 7 6 5 6 6 6 6 6 5 5 6 6 6 5 5 7 6
12 11 10 10 12 11 7 5 5 8 6 5 6 6 3 7 9 8 7 6 6 6 8 7 7 7 5 5 5 5 6 6 6 6 6 6 6 6 5 7 6 6 4 4 3 4 5 6 6 6 5 4 4 4 4 4 4 4 5 5 5 5 4 3 3 3 3 4 5 4 5 5 6 6 5 6 6 7 6 5 6 5 5 5 4
11 11 14 12 8 10 11 9 6 5 6 7 4 1 5 6 5 6 9 8 6 5 7 9 9 10 7 5 3 5 5 6 6 6 6 6 6 6 6 4 6 7 4 3 4 3 4 5 4 4 4 5 5 4 4 5 5 4 5 5 5 4 4 4 3 3 3 4 4 4 5 5 6 7 7 5 5 6 6 6 6 6 5 5 5
12 11 10 9 12 12 11 10 8 6 5 4 6 7 8 8 4 2 3 8 11 10 9 10 10 10 11 6 2 3 3 3 3 4 4 4 5 5 5 5 4 6 5 4 3 4 2 4 4 4 4 4 4 4 4 4 4 5 5 5 5 4 4 4 4 3 3 3 4 5 5 5 6 5 6 7 7 6 6 7 7 6 6 6 6
12 12 12 10 12 11 11 10 10 9 8 7 7 7 8 7 4 3 2 2 3 7 8 9 11 10 10 10 7 3 4 5 4 3 4 5 6 5 4 3 4 5 4 4 4 3 3 3 3 3 3 3 3 3 3 4 4 4 4 4 5 5 4 3 3 2 2 3 3 3 4 5 5 5 6 6 6 7 5 5 4 5 6 7 7
14 9 10 12 13 11 12 11 11 12 12 10 8 7 7 8 7 5 4 5 4 1 3 5 5 8 7 7 7 6 6 5 4 4 5 6 6 5 4 4 3 3 2 1 1 1 2 2 2 2 3 3 2 3 3 4 4 5 4 5 5 4 4 4 3 1 1 1 1 1 1 2 2 2 4 4 4 4 6 6 4 5 6 6 6
11 10 11 10 10 10 10 12 13 12 12 13 12 10 9 9 8 7 7 6 6 8 8 8 8 8 8 7 8 8 7 6 5 4 5 5 6 6 5 5 5 3 2 1 1 1 1 1 1 1 1 2 2 3 4 6 5 4 5 4 4 4 5 4 3 2 3 3 2 2 2 3 3 3 4 4 5 6 6 4 7 8 7 6 6
9 10 11 10 11 11 12 13 13 12 12 12 11 9 11 12 11 11 10 8 8 10 11 10 9 6 6 6 8 8 7 6 6 6 6 6 6 6 6 6 5 4 2 0 1 0 1 1 1 1 2 2 1 2 2 1 3 4 4 4 4 5 4 4 4 4 4 4 4 4 4 3 4 4 5 6 6 5 5 3 7 8 7 9 7
10 9 9 11 12 12 14 13 12 12 13 13 11 11 13 13 12 12 10 11 12 12 13 12 10 10 10 10 9 9 8 7 7 7 6 6 7 7 7 6 6 7 5 4 5 4 4 4 2 2 2 3 2 3 4 3 3 3 3 2 2 0 2 3 5 5 5 4 5 5 5 5 5 6 6 6 6 6 6 4 8 9 9 8 7
8 9 9 9 9 10 10 10 11 12 13 13 13 14 13 11 12 10 12 14 14 14 14 14 13 13 12 11 11 12 11 11 9 8 7 8 9 10 9 8 7 5 5 7 5 6 6 5 5 5 5 6 6 10 11 9 6 3 0 1 0 1 1 2 3 4 4 5 5 5 5 5 5 6 6 6 6 7 5 6 7 8 8 9 8
9 9 8 7 8 7 9 10 9 11 12 12 13 13 11 12 12 12 14 14 15 14 14 14 14 14 13 12 11 12 12 11 10 10 9 10 11 10 8 7 6 7 7 7 7 7 6 7 6 5 6 7 9 11 13 12 11 9 4 1 3 2 2 3 4 4 4 5 5 5 6 6 6 6 6 6 7 7 6 6 6 6 6 4 1
8 8 8 8 8 8 10 11 11 11 10 11 13 12 13 14 13 15 14 15 14 14 13 13 14 13 13 11 10 10 12 11 10 11 12 12 11 10 10 8 7 7 8 8 8 8 7 7 7 7 8 9 9 12 13 13 12 10 8 4 3 1 2 4 4 4 4 5 5 4 4 6 5 6 7 8 7 7 6 6 6 6 5 4 4
7 8 7 7 8 8 9 8 8 10 11 11 12 10 13 14 13 14 13 13 15 16 14 13 13 12 12 12 11 12 12 11 11 12 13 11 11 11 10 8 7 7 7 7 8 8 9 9 8 7 9 9 9 14 14 14 14 12 9 6 5 5 4 3 4 4 4 4 4 4 5 5 6 5 7 8 7 2 6 7 7 5 5 4 2
6 8 8 7 7 8 8 8 9 9 10 10 10 12 13 13 13 12 12 12 13 14 13 12 12 11 10 10 9 10 11 11 10 11 11 11 11 10 9 7 8 8 8 9 7 7 7 8 9 9 8 8 8 11 14 14 14 14 9 6 6 5 5 5 5 5 4 4 4 4 5 5 6 7 7 4 4 2 4 6 6 7 6 4 3
7 7 8 8 7 7 7 9 10 10 8 8 9 11 13 13 12 12 13 13 12 11 10 9 9 8 8 8 8 9 9 8 8 9 9 8 7 7 7 6 8 8 8 8 6 7 7 8 8 8 7 7 7 10 13 13 14 13 9 7 6 5 6 5 6 6 4 4 5 6 6 6 7 9 9 8 11 9 7 6 6 6 4 4 2
8 8 10 9 9 9 9 10 11 12 8 8 10 12 13 13 11 11 12 12 11 9 7 8 7 7 7 7 7 9 9 8 8 8 7 8 8 7 5 6 7 7 7 6 6 7 7 7 7 7 9 9 7 8 12 12 13 12 9 6 6 5 6 7 6 8 7 5 6 5 6 7 7 9 10 9 10 10 8 9 9 7 7 7 7
8 9 9 9 9 11 13 13 13 11 8 9 10 13 13 12 11 11 12 11 8 7 6 6 6 7 6 7 6 7 8 7 6 6 8 8 6 7 7 6 7 5 5 5 6 7 8 7 7 8 7 7 8 8 10 12 11 11 11 6 5 5 5 6 6 6 7 8 7 7 7 8 10 11 12 10 9 12 9 8 8 9 9 9 8
7 8 9 10 10 10 11 11 9 9 9 9 10 12 11 10 9 11 10 7 5 5 4 5 5 6 7 7 7 7 8 7 6 6 6 5 4 5 4 4 4 4 5 6 6 6 7 7 7 7 7 7 6 8 9 12 11 10 10 8 5 5 5 5 6 6 6 7 7 7 8 9 10 10 11 11 8 11 11 8 10 9 10 11 3
6 8 8 9 10 10 10 10 8 9 8 9 11 12 9 9 10 10 7 4 5 5 5 6 7 7 7 7 7 6 6 6 6 6 7 6 5 4 4 4 4 5 5 5 6 5 5 5 5 5 5 6 6 7 7 8 10 10 9 7 5 4 5 5 5 6 7 7 7 7 7 9 12 11 10 9 8 10 12 7 9 14 14 6 6
7 7 7 9 10 10 9 8 6 7 7 8 11 11 9 8 10 7 5 5 5 6 6 7 7 7 6 7 7 7 6 5 5 5 6 5 5 5 5 5 5 5 5 5 5 4 4 4 4 4 4 5 6 6 8 7 7 8 8 6 4 2 4 3 4 6 6 7 6 7 8 10 12 12 12 11 8 9 8 9 13 14 13 9 7
4 5 7 9 9 8 8 7 6 6 6 6 10 10 9 9 8 3 4 5 6 5 5 6 6 6 6 5 5 5 5 5 5 5 5 5 5 5 5 5 5 5 5 5 5 5 6 6 6 5 5 6 7 7 8 11 10 11 8 6 6 6 5 4 3 4 5 7 8 9 9 14 16 15 13 12 10 8 9 13 15 14 14 8 6
6 6 5 7 9 9 8 7 6 6 5 6 7 10 9 8 3 3 4 6 5 5 5 6 5 5 5 4 4 4 4 3 3 4 4 4 4 3 5 4 4 4 4 4 4 4 4 4 4 5 6 7 6 7 7 9 13 12 12 11 9 7 6 4 4 4 5 6 8 13 15 15 15 15 15 13 9 8 12 12 14 17 12 7 8
6 6 6 7 8 8 9 8 6 4 5 5 5 7 9 5 3 3 3 4 5 5 6 5 5 4 5 4 5 5 4 4 4 4 3 3 3 3 3 3 3 3 2 2 3 3 4 4 4 5 6 6 7 7 8 8 8 9 10 12 14 13 9 6 5 7 10 12 11 12 14 14 12 11 8 7 7 7 7 11 13 12 8 8 9
6 4 5 7 7 7 7 7 6 3 4 4 5 5 6 4 3 3 3 3 5 5 4 4 4 4 4 4 5 5 5 5 5 5 5 5 4 4 4 3 3 3 3 2 3 3 3 3 4 5 5 6 6 7 7 7 7 7 8 9 10 11 13 12 7 4 4 5 7 7 7 9 10 12 11 9 8 7 5 4 5 7 8 9 9
3 3 5 6 6 7 5 6 5 2 2 3 4 4 3 3 2 2 2 3 3 3 4 4 3 3 3 4 4 4 4 5 5 4 5 5 4 4 4 4 4 4 3 4 3 3 4 4 5 4 4 5 6 6 7 6 7 6 7 7 7 8 8 7 8 8 7 7 9 6 6 5 5 6 5 5 4 3 4 4 5 5 7 6 6
5 3 4 6 6 6 5 5 3 1 0 1 3 3 2 3 2 2 2 3 3 2 2 2 1 2 2 2 2 2 1 2 3 4 3 2 3 4 4 5 4 3 3 3 4 4 5 5 4 5 5 5 6 7 7 6 8 9 9 8 8 8 7 8 9 10 9 9 7 6 5 5 5 4 4 6 5 4 4 3 4 5 5 6 6
4 4 5 5 5 6 6 5 2 1 1 1 1 1 0 1 1 2 2 4 3 3 3 2 1 2 1 0 1 1 1 1 1 1 2 4 3 4 4 2 5 6 6 5 5 5 5 4 4 6 5 5 6 8 10 13 14 14 15 14 12 13 13 11 12 13 8 6 5 4 4 5 4 4 4 5 4 3 3 2 2 3 6 6 7
4 6 5 5 4 4 5 4 1 0 1 2 2 1 1 1 2 2 4 3 3 3 1 1 1 1 1 1 0 0 1 2 2 3 3 4 5 4 7 7 5 7 7 9 7 7 9 8 5 5 6 9 11 13 14 14 14 14 14 14 14 14 14 13 12 7 4 4 4 4 5 4 4 5 4 5 4 4 3 2 2 2 5 6 6
Wind_Direction
181 187 208 205 195 197 196 181 163 156 155 162 165 170 168 165 160 163 164 155 150 146 147 147 142 136 130 132 128 136 142 136 131 130 145 141 139 148 169 154 132 147 150 179 152 137 142 149 138 144 149 138 147 144 146 140 140 129 117 92 118 114 92 96 109 115 105 79 68 71 58 43 67 60 60 58 65 66 76 72 80 87 76 81 85
169 194 214 211 211 201 186 178 165 171 168 162 170 160 157 157 165 157 161 165 164 160 152 150 154 153 142 140 124 132 135 147 132 152 158 147 150 156 162 155 145 154 160 173 161 146 154 159 152 158 152 134 141 143 136 132 126 124 123 88 360 114 115 142 129 92 45 122 121 77 59 53 64 65 57 50 66 78 81 77 82 86 88 97 95
182 195 209 211 216 209 187 177 167 170 161 167 160 149 157 161 168 155 164 167 163 156 151 146 137 139 145 132 132 112 92 111 119 160 154 145 155 156 162 157 149 151 162 168 166 162 159 158 161 150 140 135 137 141 138 137 143 148 155 138 119 31 96 101 35 51 129 128 104 98 60 70 1 22 40 45 53 78 84 88 90 95 99 100 97
184 195 205 208 213 210 190 180 163 146 151 161 161 159 162 170 166 164 167 161 150 151 136 123 124 117 100 116 113 119 141 121 97 120 119 123 136 149 155 156 152 154 157 161 156 150 153 159 153 148 148 157 148 144 148 148 140 143 135 150 136 130 133 156 22 36 138 138 82 81 162 119 95 46 47 16 26 71 80 86 98 98 96 96 97
176 194 204 208 211 210 195 165 145 156 158 157 162 165 164 167 165 164 163 155 149 142 135 124 113 100 100 93 101 88 75 93 102 78 118 136 125 156 169 160 160 155 149 150 157 152 140 141 152 150 149 155 143 145 159 166 162 159 158 156 174 152 165 129 332 47 101 17 137 116 75 97 188 168 127 34 357 39 51 77 83 91 95 99 100
190 192 195 201 209 205 184 158 158 164 165 154 155 161 158 160 159 156 152 148 150 151 144 140 142 138 134 137 140 129 131 141 168 166 152 149 156 118 139 153 156 158 152 149 144 139 142 144 146 144 146 150 154 153 156 148 156 159 177 166 165 207 152 136 127 30 63 62 86 129 163 168 160 185 94 101 29 53 50 64 70 75 82 99 104
194 200 210 206 209 202 193 173 163 167 159 143 147 156 154 153 156 151 153 150 153 150 146 140 138 145 147 148 150 157 152 159 131 142 140 111 114 130 120 110 135 144 139 145 144 140 134 144 147 146 145 147 151 149 159 173 175 175 159 164 174 142 140 149 157 154 68 24 41 85 148 151 144 137 130 125 95 8 32 33 47 65 92 105 90
190 191 200 205 204 201 198 166 162 161 144 144 150 152 150 148 151 148 144 144 150 144 148 145 142 142 143 146 145 144 157 160 154 129 102 108 95 94 100 88 93 117 135 136 144 141 139 135 137 141 147 156 155 161 165 165 151 139 157 156 145 163 167 157 157 167 165 184 36 76 86 95 89 77 114 139 127 128 83 60 55 50 56 52 63
187 192 196 193 191 199 189 171 157 143 145 148 155 150 141 140 141 136 137 135 138 143 141 138 137 141 142 140 135 142 137 135 120 101 99 96 102 102 107 99 89 95 134 144 138 142 144 142 143 144 154 163 158 152 153 165 171 164 154 152 161 150 144 123 144 176 159 165 123 61 79 77 75 73 104 96 133 131 113 139 125 83 68 55 51
197 203 193 188 190 190 178 145 147 144 138 137 138 136 132 132 134 135 135 135 137 140 135 129 131 139 142 141 139 130 114 98 104 101 96 106 112 114 118 127 135 127 132 140 145 155 146 147 148 154 160 168 167 163 152 163 174 172 176 173 159 151 119 145 161 169 165 146 148 142 115 101 78 83 73 108 67 56 149 162 155 144 126 48 19
194 192 189 188 179 178 165 161 141 124 132 135 135 133 126 128 134 135 131 126 137 141 137 135 133 141 143 144 144 134 125 120 111 100 100 106 126 132 136 144 142 144 138 145 164 159 154 161 155 159 163 168 167 168 170 173 178 174 167 156 162 160 164 145 117 129 144 141 146 157 157 171 171 166 165 154 134 127 106 127 119 92 120 127 352
196 192 189 178 174 179 163 157 138 133 133 134 130 124 124 124 129 126 125 131 138 140 132 133 136 139 143 145 143 139 135 135 140 147 155 151 146 142 140 123 120 129 145 154 170 176 163 172 169 164 171 170 177 182 179 174 163 150 154 162 166 161 150 152 149 147 170 167 172 185 184 155 115 136 154 145 142 149 138 141 138 119 79 27 322
200 198 187 184 185 180 173 155 133 133 138 133 128 125 121 123 134 135 137 138 140 140 136 136 137 147 151 149 145 143 141 144 149 145 162 153 156 142 141 140 150 132 169 155 175 170 166 163 171 175 182 183 170 171 176 165 154 151 156 158 162 169 174 167 169 184 178 178 185 177 150 151 134 119 122 121 96 122 130 127 102 92 130 113 4
207 205 200 194 184 183 165 149 132 115 119 124 123 121 123 130 139 138 142 141 140 136 138 138 145 152 155 154 148 145 142 148 150 152 159 158 164 163 165 165 166 169 173 179 183 160 154 158 159 165 171 163 158 163 164 166 159 159 159 163 177 170 152 169 175 176 183 157 134 148 169 150 143 134 134 129 133 126 137 140 137 59 68 104 356
208 215 218 208 191 169 149 135 118 106 111 117 122 125 130 139 142 138 138 146 139 136 137 138 147 151 153 148 143 138 139 147 155 152 152 161 177 167 172 167 157 175 169 174 159 140 131 124 135 130 132 142 144 146 153 155 159 151 166 168 151 154 160 158 167 166 171 165 159 163 153 136 146 147 146 149 151 152 147 151 138 125 71 51 39
12 329 293 334 87 110 115 116 105 109 117 124 133 139 143 149 148 149 148 146 130 127 138 137 138 140 136 135 137 130 130 134 134 141 164 168 170 170 169 170 162 150 156 134 152 141 143 126 110 110 117 122 133 142 148 153 161 157 157 159 161 161 157 167 173 172 172 170 162 140 143 158 150 154 163 155 160 156 146 152 149 143 142 160 313
80 44 17 8 359 46 85 102 103 119 133 144 145 147 145 140 134 121 113 105 112 131 129 122 123 130 138 141 142 142 150 156 161 167 167 168 163 166 158 168 148 143 145 147 129 124 141 129 116 108 101 111 114 127 137 146 153 154 152 153 152 168 159 177 161 175 179 162 150 166 169 153 164 158 145 139 139 141 156 159 164 161 161 140 158
114 114 115 120 335 45 89 97 107 117 131 137 134 129 122 116 115 111 113 117 135 146 142 141 144 153 158 160 162 162 161 156 153 155 153 145 160 157 144 143 161 155 141 145 125 115 104 106 109 102 100 97 113 111 115 121 121 106 120 115 131 144 134 117 172 166 166 158 151 163 157 157 156 153 152 148 148 155 157 168 161 142 149 148 160
92 115 132 122 138 113 107 113 116 117 123 128 128 123 117 112 116 131 148 162 166 163 159 154 155 156 163 163 158 151 143 144 149 148 150 154 165 168 162 152 129 131 128 127 113 102 104 96 106 108 100 103 98 109 113 106 109 112 107 114 117 130 133 133 148 154 155 152 159 176 183 157 142 154 137 147 150 156 162 151 147 148 168 152 151
66 109 120 112 127 128 119 118 125 126 123 121 110 96 89 99 131 154 167 167 158 153 151 155 152 137 127 118 136 150 153 154 157 154 158 163 161 153 145 137 142 125 119 121 116 118 120 116 109 113 109 108 106 98 107 110 99 100 121 117 117 120 121 133 125 117 131 138 152 171 182 160 150 139 146 162 168 167 157 159 155 152 136 128 140
96 90 122 134 132 115 116 113 111 102 98 103 107 110 121 142 183 175 163 158 139 123 131 132 130 134 140 149 153 155 157 158 150 148 142 142 141 138 135 136 121 119 132 118 117 122 125 129 130 128 128 131 127 120 115 111 103 100 84 108 112 114 119 118 119 102 99 119 136 163 171 157 155 158 167 165 164 161 155 143 136 149 149 157 146
53 97 108 112 86 60 99 113 102 98 93 97 127 135 156 177 173 157 120 120 132 136 141 145 146 146 147 141 146 147 147 140 125 112 116 121 127 134 138 125 121 131 130 127 123 125 125 131 129 120 109 111 120 123 129 125 121 110 101 106 120 120 116 117 118 111 99 108 120 133 152 156 170 158 159 171 162 155 159 154 167 170 173 172 179
37 59 39 52 117 148 164 131 119 110 117 129 150 161 170 176 147 132 138 152 149 142 143 140 142 143 149 149 143 137 125 116 109 109 111 121 130 132 140 129 128 125 107 124 131 126 129 125 118 120 117 111 121 124 122 124 124 126 122 114 124 133 142 141 126 125 122 121 115 124 150 145 150 154 170 169 164 168 164 173 179 178 178 180 191
23 38 47 27 45 75 110 100 110 121 137 148 174 185 152 97 124 145 143 140 132 130 119 113 121 130 129 123 126 130 127 129 124 126 124 133 136 132 130 119 124 125 118 104 117 127 125 127 125 122 128 131 125 126 110 117 135 134 131 130 123 112 93 85 124 139 133 133 139 134 140 140 148 155 164 162 171 163 176 184 180 188 181 185 189
28 34 41 35 36 32 31 62 99 131 138 150 173 210 120 136 142 140 115 107 111 119 118 104 88 71 70 101 113 116 122 131 130 129 134 142 140 132 125 128 125 114 117 115 102 120 122 131 140 149 148 148 158 149 132 121 115 116 124 129 126 115 109 106 114 130 124 121 125 130 138 133 140 142 155 160 169 177 181 178 194 187 195 182 178
37 29 37 34 32 30 28 27 49 79 146 175 191 42 54 60 70 106 123 115 117 105 115 112 112 98 61 35 72 113 136 140 136 136 146 145 134 124 121 121 126 122 113 115 137 126 137 131 129 143 145 153 162 160 156 154 137 120 110 114 118 124 131 129 130 137 127 138 137 137 145 143 148 158 170 164 166 178 171 190 196 195 184 165 178
42 36 38 36 44 35 27 28 21 38 61 60 60 66 65 83 105 113 153 157 150 144 147 136 133 127 121 111 33 44 54 67 92 120 117 109 106 104 108 119 117 124 134 141 140 129 111 124 139 137 137 157 162 155 146 136 133 134 137 132 128 123 136 144 173 162 148 147 144 147 159 164 168 170 163 172 172 173 182 192 193 185 169 165 173
55 39 34 27 48 42 35 25 28 29 41 54 63 99 129 139 148 125 137 108 131 145 153 149 143 140 138 137 138 103 69 63 57 69 88 90 84 75 71 92 108 116 135 159 165 163 141 130 145 134 141 144 136 132 133 133 135 145 150 149 148 150 143 146 153 176 152 174 175 171 175 186 183 180 183 181 173 179 171 177 174 158 162 164 175
52 40 46 39 46 50 42 34 31 35 31 27 56 70 58 61 52 45 39 40 25 37 150 143 136 137 141 129 116 98 75 62 61 72 76 75 75 77 74 64 66 74 71 109 106 116 140 148 133 134 137 135 141 160 167 165 157 160 159 160 162 156 159 162 160 209 267 131 172 320 313 321 281 213 193 194 206 177 164 168 180 166 164 169 159
41 34 41 41 41 49 51 49 44 39 42 44 38 41 43 46 50 40 37 30 44 34 42 41 41 42 53 75 93 91 84 75 57 49 53 61 62 64 64 57 50 67 83 84 84 97 126 207 237 216 151 159 177 180 174 172 168 164 168 161 152 162 165 168 178 189 215 199 173 172 197 209 225 225 206 214 214 215 213 198 171 167 166 160 166
47 43 50 44 45 48 59 55 52 44 46 52 46 50 58 56 52 52 42 34 60 64 57 57 58 53 67 82 87 94 96 90 79 57 46 52 59 61 60 56 48 46 43 81 99 82 4 355 342 322 288 281 302 353 12 148 163 144 151 168 178 175 164 164 176 192 228 218 196 179 192 207 196 197 195 199 212 233 236 215 176 185 179 166 160
53 50 51 50 47 46 53 54 51 55 56 55 52 51 57 57 54 54 51 51 57 58 61 56 52 51 50 47 49 57 58 49 60 62 59 57 56 52 49 45 43 39 28 53 51 42 28 15 25 36 29 7 13 41 65 60 49 33 33 61 43 75 203 186 187 195 211 212 224 216 204 193 197 199 189 185 201 212 215 207 177 180 189 201 185
47 51 47 39 35 36 35 41 54 53 59 61 64 60 50 58 61 57 67 64 59 59 61 55 50 49 48 51 52 57 53 45 36 37 43 51 50 46 36 30 32 19 34 54 52 60 50 38 57 67 42 21 25 15 17 21 28 29 77 122 119 105 132 254 252 242 227 221 219 227 245 222 212 200 191 188 185 188 200 198 189 193 204 206 217
61 53 45 33 43 41 49 43 42 46 55 64 63 68 62 57 59 60 60 62 64 59 60 59 56 50 49 47 48 54 54 50 45 40 41 45 47 43 34 22 18 30 41 39 38 50 48 45 37 43 52 46 41 17 30 31 36 41 40 303 297 268 232 215 215 217 230 239 232 226 233 242 226 208 200 197 196 191 175 168 185 197 209 201 152
66 58 51 51 47 52 53 54 52 54 54 59 62 64 70 61 57 60 56 62 60 59 56 60 63 59 56 47 44 53 56 50 48 49 45 41 38 36 31 20 20 28 36 36 29 37 38 45 41 44 61 52 33 24 35 35 34 30 26 58 84 87 310 310 308 283 258 249 250 247 256 267 260 220 220 204 199 201 181 188 193 206 198 187 182
69 80 69 61 55 58 60 56 58 60 60 60 67 60 64 65 62 61 59 58 67 64 53 47 55 56 58 56 51 54 56 50 47 47 47 40 42 36 27 9 19 26 29 35 32 34 34 36 38 49 65 54 35 32 38 38 33 25 28 38 27 24 2 328 300 283 282 280 275 257 253 263 275 278 263 237 234 227 187 202 212 203 205 208 154
78 80 82 79 76 73 73 76 68 67 70 69 76 76 72 68 65 60 60 57 56 62 61 52 49 46 53 56 58 58 56 44 45 53 51 42 38 32 29 17 29 27 28 30 31 34 30 36 37 39 53 55 41 29 36 37 33 26 30 28 23 16 9 343 311 304 287 268 254 241 239 251 258 262 257 201 192 219 239 231 224 219 226 208 154
81 80 79 75 73 79 78 79 78 67 64 73 76 79 79 75 72 72 70 61 56 51 53 59 61 57 55 60 63 68 67 62 50 50 53 54 46 43 37 27 42 27 30 21 17 33 36 37 39 39 36 48 35 26 33 34 33 28 32 29 13 11 352 344 325 319 308 291 264 253 239 235 245 252 251 215 178 173 199 205 222 241 253 262 242
66 69 71 69 71 73 76 74 70 67 60 71 80 80 76 76 74 72 75 73 70 65 58 63 59 54 53 57 61 65 67 63 63 56 49 45 45 36 17 30 44 42 31 20 22 29 29 31 31 32 33 38 26 19 26 32 35 29 27 22 17 20 0 345 340 325 321 311 304 295 268 254 249 256 255 234 189 184 195 200 202 193 205 221 218
68 65 69 69 67 68 61 61 65 68 69 68 70 73 72 72 70 74 74 74 77 83 82 76 71 60 53 45 50 64 68 68 70 71 63 57 36 34 22 23 34 37 39 28 24 29 28 18 11 24 27 25 20 10 12 21 35 31 24 20 16 23 6 336 329 319 317 316 311 304 296 281 268 268 271 261 201 194 196 194 177 192 203 222 208
57 62 64 68 65 69 72 74 74 71 70 71 72 73 71 72 77 74 74 78 90 92 87 84 79 72 66 62 56 60 63 55 51 61 71 68 58 65 53 35 42 32 44 40 32 31 24 11 7 10 16 17 17 7 357 8 20 31 25 25 8 18 355 335 320 316 309 305 306 305 303 296 284 275 274 272 240 208 209 196 202 220 222 243 167
60 65 71 75 74 75 76 73 72 76 74 75 77 77 74 72 70 67 63 63 67 67 68 67 68 69 67 63 62 58 60 60 50 46 50 48 36 37 35 42 36 44 46 49 43 34 31 9 355 355 4 359 0 8 4 357 9 11 20 25 24 3 2 334 325 314 311 301 295 296 294 295 298 296 286 277 248 218 218 213 215 226 237 202 165
63 66 69 89 87 82 77 74 62 67 74 82 84 83 80 73 69 57 43 47 53 58 64 67 66 63 58 56 52 50 48 50 53 54 61 49 26 29 25 28 32 36 43 39 33 25 34 14 344 350 351 350 354 348 355 347 350 1 1 11 36 18 341 339 331 312 307 302 299 292 285 292 296 294 287 276 249 214 199 212 225 235 239 203 135
68 86 97 92 90 87 81 70 66 62 63 72 84 84 80 77 71 54 59 61 61 62 68 71 69 68 65 58 56 55 52 49 48 49 51 47 30 21 28 26 21 25 22 24 12 9 8 5 356 343 348 348 345 345 337 339 336 339 346 352 359 357 347 328 312 286 298 302 306 309 311 315 313 309 302 289 271 208 211 209 215 224 228 197 174
77 78 84 91 100 98 91 76 62 67 68 72 82 90 84 81 57 61 85 87 86 81 80 72 64 57 53 51 54 50 49 48 51 61 64 51 33 29 27 6 26 24 25 27 1 6 5 347 348 339 336 336 338 334 328 326 329 332 333 334 340 341 335 315 305 293 283 290 293 296 299 300 300 299 297 294 285 243 219 217 212 217 206 178 189
83 83 85 97 93 90 90 87 62 59 71 70 77 95 96 103 82 68 66 81 79 72 66 62 58 54 44 41 46 33 31 28 28 44 59 70 64 39 25 2 25 25 38 31 341 344 338 339 331 327 325 321 323 326 321 321 325 329 326 328 334 332 331 320 267 264 276 282 284 283 289 295 296 292 290 284 276 271 224 216 223 219 196 195 192
100 118 112 102 100 96 97 96 89 42 62 62 73 70 97 111 97 73 61 67 77 74 66 54 48 35 24 30 36 26 19 14 17 13 21 24 27 27 12 351 360 347 332 318 313 304 310 299 305 306 310 314 315 313 311 310 314 318 321 326 333 329 327 330 329 299 270 275 281 281 283 285 284 288 284 276 276 278 272 206 188 208 211 206 195
91 105 106 100 102 110 106 101 99 66 60 80 82 92 90 89 81 66 59 61 74 84 90 76 51 37 27 26 29 18 18 10 4 11 6 0 354 2 355 333 326 318 312 306 289 286 277 281 285 289 298 306 297 298 294 292 297 305 309 309 311 307 305 308 309 309 312 309 304 284 278 278 290 293 284 286 268 273 249 227 198 202 208 201 186
84 68 90 107 108 94 96 98 95 30 39 97 114 108 111 129 150 139 110 92 90 81 83 79 57 55 33 9 12 4 356 359 353 344 328 290 292 329 329 314 288 217 214 258 281 263 270 264 260 271 290 296 299 288 278 276 280 287 291 298 303 298 297 293 285 293 303 305 299 289 293 295 288 280 285 275 274 263 268 242 193 177 184 177 164
83 79 80 86 89 108 106 101 94 79 120 137 114 113 53 221 160 144 124 105 114 102 97 116 142 119 149 53 346 340 316 311 281 283 308 322 304 312 286 257 301 319 303 260 220 242 256 269 261 266 230 249 276 275 285 292 293 293 292 286 277 272 271 270 276 282 282 282 276 277 276 271 274 271 265 265 259 246 230 216 220 191 177 174 171
98 87 72 80 89 103 106 101 100 7 113 113 98 62 150 130 153 170 122 123 129 122 130 168 134 153 189 187 183 335 302 316 303 308 307 314 324 338 298 282 255 278 297 306 300 265 264 260 224 261 272 245 250 264 275 278 280 280 279 280 283 282 278 274 272 284 280 222 243 242 260 255 252 254 256 257 254 250 236 204 206 201 197 171 164